Retour au catalogue

STARLINK-37701

ActifCommunicationsSSO
NORAD 69306·PAYLOAD·🇺🇸 United States

Lancé May 30, 2026 depuis Vandenberg Space Force Base

Loading…

Prochains Passages (prochaines 24 heures)

TLE

FraisSource: CelesTrak SupGP

Époque: Sep 15, 2026, 03:24 UTC

1 69306C 26119L   26258.14215278 -.00062085  00000+0 -19275-2 0  2582
2 69306  97.2833 282.9503 0001027  94.1746 209.3025 15.33467173    10

Suivez STARLINK-37701 en temps réel avec AllMySat

Download on the App Store